Weather in Chakino

Russia / Tambov Oblast     52°14′01″N   41°57′07″E
temp.,
°C
wind,
m/s
gust,
m/s
humid.,
%
clouds,
%
prec.,
mm/h
press.,
hPa
HPBL,
m
27 february, sat
sat2700:00+1w61393100 0.1 1006381
03:000w71594100 0.1 1006396
06:00+1w7139599 0.0 1004636
09:00+1w8149798 0.1 1004722
12:00+1w8149899 0.1 1004759
15:00−1nw9159297 0.5 1005762
18:00−6nnw7118996 0.1 1007744
21:00−8nnw5109194 0.1 1011458
28 february, sun
sun2800:00−10nw389586 0.0 1012265
03:00−11nw369668 0.0 1014140
06:00−12nw369657 0.0 1014154
09:00−10nw479468 0.0 1015347
12:00−7nw359097 0.1 1015503
15:00−5nw459099 0.1 1015549
18:00−6nw3694100 0.1 1016242
21:00−9n339597 0.1 101861
1 march, mon
mon100:00−10nne239586 0.0 102066
03:00−12nne229453 0.0 102221
06:00−12n23930 0.0 102329
09:00−11n23930 0.0 1025106
12:00−8nnw238843 0.0 1026286
15:00−6w249069 0.0 1026408
18:00−9w349693 0.0 102561
21:00−8wsw469675 0.0 1025107
2 march, tue
tue200:00−6wsw5119499 0.0 1022279
03:00−5wsw71394100 0.1 1019423
06:00−3wsw81694100 0.2 1015533
09:00−1wsw91597100 1.9 1011747
12:000w81398100 1.8 1009743
15:000wnw81396100 2.2 1008876
18:00−1nw6148877 0.1 1009533
21:00−3nw6139275 0.1 1011393
3 march, wed
wed300:00−3wnw6129489 0.1 1011507
03:00−3nw6129494 0.2 1011554
06:00−4nw6129498 0.1 1011498
09:00−4nw7119097 0.1 1013853
12:00−3nw7118698 0.1 10141114
15:00−3nw7118399 0.3 10151160
18:00−4nw6138791 0.1 1017512
21:00−6nw5109254 0.1 1019238